| time (UTC) | temp C | wind direction | speed KPH | gust KPH | rain 1hr cm | rain 24hr cm | rain mn cm | humidity % | barometer mb |
| 20260505124536 | 8 | 39 | 0.0 | 6.4 | 0.00 | 0.00 | 0.00 | 72 | 1003.9 |
| 20260505123029 | 8 | 82 | 0.0 | 3.2 | 0.00 | 0.00 | 0.00 | 72 | 1003.8 |
| 20260505121525 | 8 | 82 | 0.0 | 1.6 | 0.00 | 0.00 | 0.00 | 73 | 1003.4 |
| 20260505120031 | 8 | 80 | 0.0 | 1.6 | 0.00 | 0.00 | 0.00 | 73 | 1003.2 |
| 20260505114522 | 8 | 78 | 0.0 | 1.6 | 0.00 | 0.00 | 0.00 | 73 | 1002.6 |
| 20260505113020 | 8 | 78 | 0.0 | 3.2 | 0.00 | 0.00 | 0.00 | 72 | 1002.8 |
| 20260505111518 | 9 | 78 | 0.0 | 3.2 | 0.00 | 0.00 | 0.00 | 71 | 1002.4 |
| 20260505101513 | 10 | 79 | 0.0 | 1.6 | 0.00 | 0.00 | 0.00 | 64 | 1002.8 |
| 20260505100012 | 10 | 79 | 0.0 | 1.6 | 0.00 | 0.00 | 0.00 | 66 | 1002.7 |
| 20260505094513 | 9 | 79 | 0.0 | 0.0 | 0.00 | 0.00 | 0.00 | 66 | 1002.9 |
| 20260505093010 | 10 | 79 | 0.0 | 0.0 | 0.00 | 0.00 | 0.00 | 68 | 1003.0 |
| 20260505091507 | 10 | 79 | 0.0 | 0.0 | 0.00 | 0.00 | 0.00 | 67 | 1002.7 |
| 20260505090005 | 10 | 79 | 0.0 | 0.0 | 0.00 | 0.00 | 0.00 | 65 | 1002.6 |
| 20260505084505 | 10 | 79 | 0.0 | 0.0 | 0.00 | 0.00 | 0.00 | 64 | 1002.7 |
| 20260505083104 | 11 | 79 | 0.0 | 0.0 | 0.00 | 0.00 | 0.00 | 63 | 1002.8 |
| 20260505081557 | 11 | 79 | 0.0 | 0.0 | 0.00 | 0.00 | 0.00 | 61 | 1002.7 |
| 20260505080108 | 11 | 79 | 0.0 | 0.0 | 6.88 | 0.00 | 0.00 | 59 | 1002.7 |
| 20260505074550 | 12 | 79 | 0.0 | 0.0 | 0.00 | 0.00 | 0.00 | 61 | 1002.5 |
| 20260505073049 | 12 | 79 | 0.0 | 1.6 | 0.00 | 0.00 | 0.00 | 55 | 1002.5 |
| 20260505071547 | 12 | 80 | 0.0 | 3.2 | 0.00 | 0.00 | 0.00 | 54 | 1002.4 |
| 20260505070048 | 12 | 80 | 0.0 | 3.2 | 0.00 | 0.00 | 0.00 | 56 | 1001.7 |
| 20260505064548 | 12 | 74 | 0.0 | 8.0 | 0.00 | 0.00 | 0.00 | 58 | 1002.1 |
| 20260505063044 | 12 | 67 | 0.0 | 8.0 | 0.00 | 0.00 | 0.00 | 59 | 1002.0 |
| 20260505061540 | 12 | 69 | 0.0 | 8.0 | 0.00 | 0.00 | 0.00 | 60 | 1001.8 |
| 20260505060039 | 13 | 63 | 1.6 | 11.3 | 0.00 | 0.00 | 0.00 | 61 | 1002.1 |
| 20260505054537 | 13 | 57 | 1.6 | 8.0 | 0.00 | 0.00 | 0.00 | 62 | 1001.7 |
| 20260505053104 | 13 | 67 | 1.6 | 9.7 | 0.00 | 0.00 | 0.00 | 62 | 1001.6 |
| 20260505051536 | 13 | 52 | 0.0 | 8.0 | 0.00 | 0.00 | 0.00 | 62 | 1001.6 |
| 20260505041541 | 13 | 68 | 0.0 | 11.3 | 0.00 | 0.00 | 0.00 | 63 | 1001.6 |
| 20260505040032 | 15 | 52 | 3.2 | 12.9 | 0.00 | 0.00 | 0.00 | 52 | 1001.4 |
| 20260505034533 | 15 | 60 | 1.6 | 11.3 | 0.00 | 0.00 | 0.00 | 51 | 1000.7 |
| 20260505033032 | 15 | 70 | 1.6 | 14.5 | 0.00 | 0.00 | 0.00 | 51 | 1000.4 |
| 20260505031530 | 15 | 62 | 4.8 | 19.3 | 0.00 | 0.00 | 0.00 | 49 | 1000.3 |
| 20260505030029 | 16 | 75 | 3.2 | 17.7 | 0.00 | 0.00 | 0.00 | 45 | 999.6 |
| 20260505024528 | 16 | 64 | 6.4 | 25.7 | 0.00 | 0.00 | 0.00 | 44 | 998.9 |
| 20260505023026 | 16 | 291 | 3.2 | 17.7 | 0.00 | 0.00 | 0.00 | 45 | 998.5 |
| 20260505021529 | 17 | 27 | 6.4 | 14.5 | 0.00 | 0.00 | 0.00 | 41 | 998.2 |
| 20260505020025 | 18 | 34 | 6.4 | 19.3 | 0.00 | 0.00 | 0.00 | 37 | 997.8 |
| 20260505014525 | 18 | 76 | 4.8 | 14.5 | 0.00 | 0.00 | 0.00 | 38 | 997.4 |
| 20260505013024 | 19 | 11 | 4.8 | 11.3 | 0.00 | 0.00 | 0.00 | 34 | 997.1 |
| 20260505011543 | 20 | 54 | 1.6 | 12.9 | 0.00 | 0.00 | 0.00 | 33 | 996.6 |
| 20260505010022 | 20 | 71 | 1.6 | 9.7 | 0.00 | 0.00 | 0.00 | 31 | 996.5 |
| 20260505004521 | 20 | 58 | 1.6 | 11.3 | 0.00 | 0.00 | 0.00 | 30 | 996.2 |
| 20260505003020 | 21 | 34 | 1.6 | 4.8 | 0.00 | 0.00 | 0.00 | 29 | 995.9 |
| 20260505001520 | 21 | 60 | 0.0 | 8.0 | 0.00 | 0.00 | 0.00 | 29 | 995.9 |
| 20260505000021 | 22 | 72 | 1.6 | 14.5 | 0.00 | 0.00 | 0.00 | 27 | 995.9 |
| 20260504234519 | 22 | 26 | 3.2 | 12.9 | 0.00 | 0.00 | 0.00 | 27 | 995.7 |
| 20260504233018 | 23 | 26 | 4.8 | 25.7 | 0.00 | 0.00 | 0.00 | 25 | 995.9 |
| 20260504231516 | 24 | 344 | 8.0 | 14.5 | 0.00 | 0.00 | 0.00 | 19 | 995.5 |
| 20260504230017 | 24 | 340 | 3.2 | 12.9 | 0.00 | 0.00 | 0.00 | 19 | 995.3 |
| 20260504224516 | 25 | 280 | 4.8 | 20.9 | 0.00 | 0.00 | 0.00 | 19 | 995.4 |
| 20260504223022 | 25 | 337 | 6.4 | 20.9 | 0.00 | 0.00 | 0.00 | 19 | 995.3 |
| 20260504221614 | 25 | 355 | 3.2 | 11.3 | 0.00 | 0.00 | 0.00 | 19 | 995.5 |
| 20260504220012 | 25 | 21 | 3.2 | 12.9 | 0.00 | 0.00 | 0.00 | 20 | 995.8 |
| 20260504214511 | 25 | 214 | 1.6 | 17.7 | 0.00 | 0.00 | 0.00 | 21 | 995.8 |
| 20260504213010 | 25 | 35 | 8.0 | 24.1 | 0.00 | 0.00 | 0.00 | 20 | 996.0 |
| 20260504211507 | 25 | 332 | 8.0 | 19.3 | 0.00 | 0.00 | 0.00 | 22 | 996.3 |
| 20260504210010 | 25 | 344 | 4.8 | 16.1 | 0.00 | 0.00 | 0.00 | 21 | 996.5 |
| 20260504204508 | 26 | 315 | 6.4 | 14.5 | 0.00 | 0.00 | 0.00 | 20 | 996.6 |
| 20260504203004 | 25 | 293 | 3.2 | 17.7 | 0.00 | 0.00 | 0.00 | 22 | 996.6 |
| 20260504201502 | 26 | 14 | 4.8 | 14.5 | 0.00 | 0.00 | 0.00 | 19 | 996.8 |
| 20260504200002 | 26 | 355 | 3.2 | 9.7 | 0.00 | 0.00 | 0.00 | 17 | 996.8 |
| 20260504194606 | 26 | 327 | 6.4 | 19.3 | 0.00 | 0.00 | 0.00 | 17 | 996.8 |
| 20260504193102 | 26 | 28 | 6.4 | 16.1 | 0.00 | 0.00 | 0.00 | 17 | 996.9 |
| 20260504191612 | 25 | 19 | 4.8 | 14.5 | 0.00 | 0.00 | 0.00 | 18 | 997.0 |
| 20260504190059 | 25 | 5 | 3.2 | 11.3 | 0.00 | 0.00 | 0.00 | 17 | 997.2 |
| 20260504184554 | 25 | 20 | 0.0 | 9.7 | 0.00 | 0.00 | 0.00 | 19 | 997.4 |
| 20260504183053 | 25 | 343 | 6.4 | 14.5 | 0.00 | 0.00 | 0.00 | 19 | 997.8 |
| 20260504181556 | 25 | 9 | 4.8 | 20.9 | 0.00 | 0.00 | 0.00 | 20 | 998.1 |
| 20260504180047 | 25 | 11 | 0.0 | 12.9 | 0.00 | 0.00 | 0.00 | 20 | 998.2 |
| 20260504174544 | 24 | 45 | 3.2 | 12.9 | 0.00 | 0.00 | 0.00 | 22 | 998.4 |
| 20260504173041 | 24 | 239 | 3.2 | 16.1 | 0.00 | 0.00 | 0.00 | 23 | 998.8 |
| 20260504171546 | 23 | 36 | 4.8 | 14.5 | 0.00 | 0.00 | 0.00 | 23 | 999.1 |